Location: Elkol
(41.7238°N, 110.6124°W)
Time: 07:11:07
(UTC+00:00)

Envisat - Pass Details

Date: 21 January 2022
Orbit: 764 x 765 km, 98.2° (Epoch: 21 May)

Event Time Altitude Azimuth Distance (km) Brightness Sun altitude
Rises 14:04:40 0° 351° (N) 3,239 6.0 -7.5°
Reaches altitude 10° 14:09:05 10° 314° (NW) 2,306 4.9 -6.8°
Maximum altitude 14:10:08 11° 302° (WNW) 2,262 4.8 -6.6°
Drops below altitude 10° 14:11:11 10° 290° (WNW) 2,304 4.8 -6.4°
Sets 14:15:36 0° 253° (WSW) 3,224 5.8 -5.6°
